User: anonymous   Login
Location: SAPM � Hemmingford
(45.0500°N, 73.5833°W)
Time: 20:54:34
(UTC-05:00)
Language:

Cosmos 1603 - Orbit

View from above orbital plane
View from above orbital plane
View from above satellite
View from above satellite

Ground track
Ground track

The orbit data is extracted from the following two-line orbital elements,

1 15333U 84106A   15057.55763042  .00000385  00000-0  22697-3 0  9999
2 15333 071.0268 054.6185 0018267 043.8326 094.9006 14.13980594569293
Epoch (UTC): 26 February 2015 13:22:59
Eccentricity: 0.0018267
inclination: 71.0268°
perigee height: 832 km
apogee height: 859 km
right ascension of ascending node: 54.6185°
argument of perigee: 43.8326°
revolutions per day: 14.13980594
mean anomaly at epoch: 94.9006°
orbit number at epoch: 56929

The dashed part of the orbit path shows where the satellite is in the earth's shadow,  

DLR